Regional Weather Roundup
Issued by NWS

Home | Current Version | Previous Version | Graphics & Text | Print | Product List | Glossary On
Versions: 1 2 3 4 5 6 7 8 9 10 11 12 13 14 15 16 17 18 19 20 21 22 23 24 25 26 27 28 29 30 31 32 33 34 35 36 37 38 39 40 41 42 43 44 45 46 47 48 49 50
000
ASUS43 KBIS 310120
RWRND

NORTH DAKOTA REGIONAL WEATHER ROUNDUP
NATIONAL WEATHER SERVICE BISMARCK ND
800 PM CDT THU OCT 30 2014

NOTE: "FAIR" INDICATES FEW OR NO CLOUDS BELOW 12,000 FEET WITH NO
SIGNIFICANT WEATHER AND/OR OBSTRUCTIONS TO VISIBILITY.


NDZ001>003-009>011-017-310200-
NORTHWEST NORTH DAKOTA

CITY           SKY/WX    TMP DP  RH WIND       PRES   REMARKS
WILLISTON      CLOUDY    36  29  75 E8        30.50R
MINOT          CLEAR     23  17  78 W6        30.54R WCI  16
MINOT AFB      CLEAR     18  15  90 W6        30.54R WCI  10
$$

NDZ018>021-031>035-040>046-310200-
SOUTHWEST NORTH DAKOTA

CITY           SKY/WX    TMP DP  RH WIND       PRES   REMARKS
BISMARCK       CLOUDY    34  25  69 NE10      30.53R
DICKINSON      CLOUDY    33  28  81 E9        30.46R
GARRISON         N/A     30  22  72 NE5       30.53R
HETTINGER ARPT CLOUDY    34  29  82 E9        30.48R
$$

NDZ004>008-012>016-024-026-027-054-310200-
NORTHEAST NORTH DAKOTA

CITY           SKY/WX    TMP DP  RH WIND       PRES   REMARKS
GRAND FORKS    CLEAR     30  21  69 N10       30.50R
GRND FRKS AFB  CLEAR     29  19  66 N9        30.51R
DEVILS LAKE    CLEAR     28  14  54 NE9       30.51R WCI  20
$$

NDZ022-023-025-028>030-036>039-047>053-310200-
SOUTHEAST NORTH DAKOTA

CITY           SKY/WX    TMP DP  RH WIND       PRES   REMARKS
FARGO          CLEAR     32  21  64 N15       30.46R
$$




USA.gov is the U.S. government's official web portal to all federal, state and local government web resources and services.